TimeCDT,TemperatureF,Dew PointF,Humidity,Sea Level PressureIn,VisibilityMPH,Wind Direction,Wind SpeedMPH,Gust SpeedMPH,PrecipitationIn,Events,Conditions,WindDirDegrees,DateUTC
12:53 AM,70.0,57.0,63,30.10,10.0,SE,6.9,-,N/A,,Scattered Clouds,140,2013-05-02 05:53:00
1:53 AM,66.0,55.0,68,30.10,10.0,SE,3.5,-,N/A,,Mostly Cloudy,130,2013-05-02 06:53:00
2:53 AM,64.9,55.9,73,30.10,10.0,Calm,Calm,-,N/A,,Mostly Cloudy,0,2013-05-02 07:53:00
3:53 AM,62.1,55.0,78,30.11,10.0,Calm,Calm,-,N/A,,Clear,0,2013-05-02 08:53:00
4:53 AM,60.1,54.0,80,30.11,10.0,Calm,Calm,-,N/A,,Clear,0,2013-05-02 09:53:00
5:53 AM,60.1,55.0,83,30.13,10.0,Calm,Calm,-,N/A,,Clear,0,2013-05-02 10:53:00
6:53 AM,59.0,55.0,87,30.15,10.0,Calm,Calm,-,N/A,,Mostly Cloudy,0,2013-05-02 11:53:00
7:53 AM,64.0,57.9,80,30.17,10.0,Calm,Calm,-,N/A,,Mostly Cloudy,0,2013-05-02 12:53:00
8:53 AM,69.1,55.9,63,30.18,10.0,SE,5.8,-,N/A,,Clear,130,2013-05-02 13:53:00
9:53 AM,70.0,55.0,59,30.18,10.0,SE,5.8,-,N/A,,Clear,130,2013-05-02 14:53:00
10:53 AM,73.9,55.9,53,30.18,10.0,East,8.1,-,N/A,,Overcast,100,2013-05-02 15:53:00
11:53 AM,73.0,54.0,51,30.17,10.0,SSE,5.8,-,N/A,,Partly Cloudy,160,2013-05-02 16:53:00
12:53 PM,75.0,55.0,50,30.14,3.0,Calm,Calm,-,N/A,,Haze,0,2013-05-02 17:53:00
1:53 PM,75.9,55.0,48,30.13,10.0,Calm,Calm,-,N/A,,Clear,0,2013-05-02 18:53:00
2:53 PM,77.0,57.0,50,30.11,10.0,NE,4.6,-,N/A,,Scattered Clouds,50,2013-05-02 19:53:00
3:53 PM,75.9,57.0,52,30.09,10.0,SE,8.1,-,N/A,,Partly Cloudy,130,2013-05-02 20:53:00
4:53 PM,75.9,57.0,52,30.09,10.0,SE,10.4,-,N/A,,Clear,130,2013-05-02 21:53:00
5:53 PM,75.0,57.0,53,30.07,10.0,SE,5.8,-,N/A,,Clear,140,2013-05-02 22:53:00
6:53 PM,72.0,57.9,61,30.07,10.0,SE,5.8,-,N/A,,Clear,130,2013-05-02 23:53:00
7:53 PM,70.0,57.9,65,30.07,10.0,Calm,Calm,-,N/A,,Clear,0,2013-05-03 00:53:00
8:53 PM,69.1,57.9,68,30.07,10.0,Calm,Calm,-,N/A,,Clear,0,2013-05-03 01:53:00
9:53 PM,68.0,57.9,70,30.07,10.0,Calm,Calm,-,N/A,,Overcast,0,2013-05-03 02:53:00
10:53 PM,68.0,59.0,73,30.06,10.0,Calm,Calm,-,N/A,,Overcast,0,2013-05-03 03:53:00
11:53 PM,66.9,59.0,76,30.05,10.0,Calm,Calm,-,N/A,,Mostly Cloudy,0,2013-05-03 04:53:00